Find Starlink 1269

NORAD ID: 45197 Int'l Des: 2020-012 Owner: SPXS Country: US Constellation: starlink operational
LEOCIRCULAR

現在のビュー

3D地球を読み込み中...

About Starlink 1269

Starlink 1269 (NORAD 45197) is a starlink constellation satellite (v1.0) launched Feb 17, 2020 by SPXS of US. It operates in LEO, CIRCULAR orbit with a mass of 260.00 kg.

Starlink 1269について

説明を読み込み中...

次回通過

Passes for default location (London). Set your location on the main map for personalized predictions.

高度履歴

Loading altitude history...

軌道要素

1 45197U 20012V 26170.70157336 .00035689 00000-0 10083-2 0 9994
2 45197 53.1563 284.2936 0001413 335.2146 24.8789 15.36042176350559
Epoch: Jun 19, 2026 • Age: 14 hours

現在のステータス

高度 458.1 km
速度 7.64 km/s
衛星直下点 24.62°N, 72.42°W
打ち上げ日 Feb 17, 2020
運用期間 6.3 years
タイプ internet

技術仕様

分類 Payload
質量 260.00 kg
乾燥質量 248.00 kg
総質量 260.00 kg
長さ 0.20 m
直径 2.80 m
スパン 9.00 m
形状 Box + pan
製造者 SPXS
バスタイプ Starlink
フェーズステータス In Orbit
所有者/国 SPXS/US

Most Searched